User: anonymous   Login
Location: Oronoko Observatory
(41.9167°N, 86.3833°W)
Time: 14:51:12
(UTC-04:00)
Language:

PAYLOAD A - Orbit

View from above orbital plane
View from above orbital plane
View from above satellite
View from above satellite

Ground track
Ground track

The orbit data is extracted from the following two-line orbital elements,

1 27840U 03031A   16240.63999195 -.00000007 +00000-0 +11669-4 0  9997
2 27840 098.1977 244.9742 0097023 284.2452 074.7976 14.38861904691004
Epoch (UTC): 27 August 2016 15:21:35
Eccentricity: 0.0097023
inclination: 98.1977°
perigee height: 693 km
apogee height: 831 km
right ascension of ascending node: 244.9742°
argument of perigee: 284.2452°
revolutions per day: 14.38861904
mean anomaly at epoch: 74.7976°
orbit number at epoch: 69100

The dashed part of the orbit path shows where the satellite is in the earth's shadow,  

DLR